This is the latest recevied weather packets stored in our database for station/object K5BV. If no packets are shown the sender has not sent any weather packets the latest 10 day(s).
| Time | Temp. | Humidity | Pressure | Rain* | Wind** | Luminosity | Snow |
|---|---|---|---|---|---|---|---|
| 1777567961 | 26.11° C | 87% | 1011.1 hPa | 0 mm | - | - | - |
| 1777567362 | 26.67° C | 86% | 1011.2 hPa | 0 mm | - | - | - |
| 1777566762 | 27.22° C | 84% | 1010.9 hPa | 0 mm | - | - | - |
| 1777566162 | 27.78° C | 84% | 1010.9 hPa | 0 mm | - | - | - |
| 1777565562 | 27.78° C | 82% | 1010.8 hPa | 0 mm | - | - | - |
| 1777564961 | 27.78° C | 84% | 1010.7 hPa | 0 mm | - | - | - |
| 1777564361 | 27.78° C | 83% | 1010.7 hPa | 0 mm | - | - | - |
| 1777563762 | 27.22° C | 85% | 1010.7 hPa | 0 mm | - | - | - |
| 1777563162 | 27.22° C | 86% | 1010.9 hPa | 0 mm | - | - | - |
| 1777562562 | 26.67° C | 88% | 1010.8 hPa | 0 mm | - | - | - |
| 1777561964 | 26.67° C | 88% | 1010.9 hPa | 0 mm | - | - | - |
| 1777561371 | 26.67° C | 89% | 1010.6 hPa | 0 mm | - | - | - |
| 1777560761 | 26.11° C | 89% | 1011 hPa | 0 mm | - | - | - |
| 1777560161 | 26.11° C | 89% | 1011 hPa | 0 mm | - | - | - |
| 1777559562 | 26.11° C | 90% | 1010.8 hPa | 0 mm | - | - | - |
| 1777558363 | 26.11° C | 91% | 1010.8 hPa | 0 mm | - | - | - |
| 1777557764 | 26.11° C | 92% | 1010.7 hPa | 0 mm | - | - | - |
| 1777557163 | 25.56° C | 93% | 1010.9 hPa | 0 mm | - | - | - |
| 1777556563 | 25.56° C | 93% | 1010.7 hPa | 0 mm | - | - | - |
| 1777555963 | 25° C | 94% | 1010.8 hPa | 0 mm | - | - | - |
| 1777555363 | 25° C | 94% | 1010.7 hPa | 0 mm | - | - | - |
| 1777554764 | 25° C | 95% | 1010.6 hPa | 0 mm | - | - | - |
| 1777554165 | 25° C | 95% | 1010.6 hPa | 0 mm | - | - | - |
| 1777553564 | 25° C | 95% | 1010.5 hPa | 0 mm | - | - | - |
| 1777552964 | 25° C | 95% | 1010.6 hPa | 0 mm | - | - | - |
* Rain latest hour (hover to see other rain measurements)
** Current wind speed in m/s (hover to see current wind gust speed)